Location: Waldport
(44.4270°N, 124.0680°W)
Time: 14:44:11
(UTC-07:00)

Amateur Radio Satellites - All Passes

Search period start: 18 September 2014 14:14
Search period end: 19 September 2014 14:14
Location: Waldport, 44.4270°N, 124.0680°W

Satellite Date Start Highest point End Downlink Frequencies (MHz)
Time Altitude Azimuth
Sapphire 18 Sep 14:15:05 14:20:13 43° 309° (NW) 14:25:23 437.095 MHz 1200 baud AX-25 AFSK
AO-27 18 Sep 14:24:09 14:29:17 72° 73° (ENE) 14:34:28 436.795 MHz FM
JAS-1B 18 Sep 14:31:52 14:40:36 89° 254° (WSW) 14:47:52 435.800 - 435.900 CW/SSB
AO-7 18 Sep 14:36:37 14:42:28 22° 48° (NE) 14:48:19 29.400 - 29.500 MHz
RS-15 18 Sep 14:42:44 14:53:40 68° 243° (WSW) 15:05:04 29.354 - 29.394 USB, Beacon 29.352 USB
PCSat 18 Sep 14:43:08 14:47:43 27° 316° (NW) 14:52:19 145.825 MHz
Oscar 16 18 Sep 14:48:42 14:53:18 32° 264° (W) 14:57:57 437.025 USB, Beacon 2401.1428
Gurwin Techsat 1B 18 Sep 15:09:49 15:15:08 86° 75° (ENE) 15:20:29 435.225 FM
AO-Echo 18 Sep 15:11:35 15:15:58 36° 263° (W) 15:20:19 ?
ITAMSAT 1 18 Sep 15:29:40 15:34:14 31° 264° (W) 15:38:49 435.822 SSB
Uribyol 2 18 Sep 15:34:29 15:38:49 27° 265° (W) 15:43:12 436.500 FM
TMSAT-1 18 Sep 15:47:48 15:53:01 60° 259° (W) 15:58:17 436.925 FM
Sapphire 18 Sep 16:03:29 16:05:09 11° 332° (NNW) 16:06:49 437.095 MHz 1200 baud AX-25 AFSK
AO-27 18 Sep 16:06:24 16:09:21 15° 270° (W) 16:12:18 436.795 MHz FM
Uosat F 18 Sep 16:19:49 16:24:40 54° 71° (ENE) 16:29:32 435.120 FM
AO-7 18 Sep 16:25:47 16:34:06 82° 69° (ENE) 16:42:26 29.400 - 29.500 MHz
JAS-1B 18 Sep 16:26:12 16:31:45 19° 270° (W) 16:36:49 435.800 - 435.900 CW/SSB
JAS-2 18 Sep 16:38:15 16:40:36 13° 56° (ENE) 16:42:57 435.800 - 435.900 CW/SSB, 435.910 FM
Gurwin Techsat 1B 18 Sep 16:53:31 16:55:47 13° 272° (W) 16:58:04 435.225 FM
RS-15 18 Sep 16:58:19 17:03:50 15° 264° (W) 17:09:28 29.354 - 29.394 USB, Beacon 29.352 USB
OPAL 18 Sep 17:16:08 17:20:15 24° 95° (E) 17:24:18 ?
MaSat-1 18 Sep 17:36:25 17:39:33 21° 48° (NE) 17:42:20 437.345 MHz
Uosat F 18 Sep 18:00:14 18:03:47 19° 268° (W) 18:07:21 435.120 FM
Saudisat 1A 18 Sep 18:10:28 18:14:49 67° 122° (ESE) 18:19:13 436.775 MHz
Hamsat 18 Sep 18:11:19 18:15:40 73° 75° (ENE) 18:20:02 145.90 MHz
JAS-2 18 Sep 18:19:42 18:25:00 87° 256° (WSW) 18:30:13 435.800 - 435.900 CW/SSB, 435.910 FM
AO-7 18 Sep 18:21:37 18:27:46 23° 269° (W) 18:33:58 29.400 - 29.500 MHz
SO-67 18 Sep 18:51:28 18:54:19 24° 69° (ENE) 18:57:10 435.3500 MHz FM
OPAL 18 Sep 18:54:23 18:59:22 48° 293° (WNW) 19:04:15 ?
KITSAT 1 18 Sep 19:11:15 19:17:53 29° 106° (ESE) 19:24:30 435.175 FM
MaSat-1 18 Sep 19:12:55 19:16:27 33° 252° (WSW) 19:19:29 437.345 MHz
STRAND 1 18 Sep 19:33:34 19:38:14 34° 97° (E) 19:42:53 ?
Sapphire 18 Sep 19:36:52 19:37:57 11° 27° (NNE) 19:39:03 437.095 MHz 1200 baud AX-25 AFSK
Hamsat 18 Sep 19:50:48 19:52:07 11° 272° (W) 19:53:27 145.90 MHz
Saudisat 1A 18 Sep 19:51:33 19:54:50 20° 322° (NW) 19:58:08 436.775 MHz
PCSat 18 Sep 20:02:43 20:05:49 15° 34° (NE) 20:08:55 145.825 MHz
HO-68 18 Sep 20:15:53 20:22:12 36° 61° (ENE) 20:28:34 435.675 MHz FM
SO-67 18 Sep 20:24:39 20:27:18 21° 266° (W) 20:29:59 435.3500 MHz FM
KITSAT 1 18 Sep 21:04:34 21:12:38 70° 306° (NW) 21:20:44 435.175 FM
STRAND 1 18 Sep 21:12:50 21:17:22 32° 294° (WNW) 21:21:53 ?
Oscar 11 18 Sep 21:17:44 21:21:20 26° 67° (ENE) 21:24:57 145.825 FM, Beacon 2401.500 USB
Sapphire 18 Sep 21:17:54 21:23:00 39° 50° (NE) 21:28:03 437.095 MHz 1200 baud AX-25 AFSK
UKube-1 18 Sep 21:32:49 21:37:01 52° 72° (ENE) 21:41:15 145.840 MHz, 145.915 MHz
PCSat 18 Sep 21:44:55 21:50:20 65° 56° (NE) 21:55:43 145.825 MHz
SO-50 18 Sep 21:54:59 21:55:54 11° 107° (ESE) 21:56:49 436.795 FM
HO-68 18 Sep 22:02:50 22:09:42 50° 260° (W) 22:16:38 435.675 MHz FM
AO-40 18 Sep 22:14:23 00:50:59 29° 200° (SSW) 05:25:44 Beacon 2401.320
FUNcube-1 18 Sep 22:40:14 22:44:37 76° 75° (ENE) 22:49:09 145.950 - 145.970 MHz USB
Oscar 11 18 Sep 22:53:28 22:57:24 32° 264° (W) 23:01:21 145.825 FM, Beacon 2401.500 USB
Sapphire 18 Sep 23:01:28 23:06:22 35° 249° (WSW) 23:11:15 437.095 MHz 1200 baud AX-25 AFSK
KITSAT 1 18 Sep 23:03:18 23:09:36 24° 331° (NNW) 23:15:55 435.175 FM
UKube-1 18 Sep 23:10:54 23:13:32 16° 268° (W) 23:16:10 145.840 MHz, 145.915 MHz
PCSat 18 Sep 23:29:24 23:33:14 20° 254° (WSW) 23:37:03 145.825 MHz
SO-50 18 Sep 23:31:10 23:35:40 89° 122° (ESE) 23:40:18 436.795 FM
Oscar 10/S400 19 Sep 00:06:38 00:53:01 49° 204° (SSW) 07:59:01 145.825 - 145.975 CW/USB, Beacon 145.810 USB
FUNcube-1 19 Sep 00:20:17 00:21:36 11° 273° (W) 00:22:56 145.950 - 145.970 MHz USB
Saudisat 1A 19 Sep 00:57:06 00:59:53 16° 35° (NE) 01:02:39 436.775 MHz
KITSAT 1 19 Sep 01:04:07 01:08:32 15° 1° (N) 01:12:57 435.175 FM
UOSAT-12 19 Sep 01:13:07 01:17:44 81° 123° (ESE) 01:22:28 437.025 FM, 437.400 FM
SO-50 19 Sep 01:13:49 01:16:54 18° 325° (NW) 01:20:02 436.795 FM
ITAMSAT 1 19 Sep 02:04:15 02:04:56 10° 87° (E) 02:05:36 435.822 SSB
Uribyol 2 19 Sep 02:07:20 02:09:27 12° 88° (E) 02:11:34 436.500 FM
JAS-1B 19 Sep 02:17:15 02:21:01 18° 90° (E) 02:24:45 435.800 - 435.900 CW/SSB
Oscar 19 19 Sep 02:19:31 02:24:16 35° 97° (E) 02:28:57 437.125 CW, 437.150 USB
ISS 19 Sep 02:34:55 02:36:28 13° 132° (SE) 02:38:02 145.800 FM
Saudisat 1A 19 Sep 02:35:41 02:40:08 86° 55° (NE) 02:44:32 436.775 MHz
AO-27 19 Sep 02:36:13 02:40:16 23° 93° (E) 02:44:19 436.795 MHz FM
UOSAT-12 19 Sep 02:55:05 02:58:29 19° 324° (NW) 03:01:55 437.025 FM, 437.400 FM
Oscar 16 19 Sep 02:57:57 03:03:10 81° 104° (ESE) 03:08:19 437.025 USB, Beacon 2401.1428
KITSAT 1 19 Sep 03:00:51 03:07:22 26° 31° (NNE) 03:13:51 435.175 FM
RS-15 19 Sep 03:02:19 03:08:03 16° 97° (E) 03:13:43 29.354 - 29.394 USB, Beacon 29.352 USB
AO-Echo 19 Sep 03:16:10 03:20:57 59° 101° (E) 03:25:51 ?
Gurwin Techsat 1B 19 Sep 03:24:46 03:29:26 30° 95° (E) 03:34:04 435.225 FM
ITAMSAT 1 19 Sep 03:39:58 03:45:13 82° 104° (ESE) 03:50:26 435.822 SSB
Uribyol 2 19 Sep 03:44:21 03:49:37 87° 285° (WNW) 03:54:51 436.500 FM
Oscar 19 19 Sep 03:58:59 04:03:31 32° 294° (WNW) 04:08:01 437.125 CW, 437.150 USB
TMSAT-1 19 Sep 04:01:55 04:07:04 48° 99° (E) 04:12:10 436.925 FM
JAS-1B 19 Sep 04:06:37 04:12:22 62° 289° (WNW) 04:17:57 435.800 - 435.900 CW/SSB
ISS 19 Sep 04:09:24 04:12:44 88° 149° (SSE) 04:16:04 145.800 FM
AO-27 19 Sep 04:15:01 04:20:03 50° 290° (WNW) 04:25:03 436.795 MHz FM
Saudisat 1A 19 Sep 04:17:44 04:19:01 11° 252° (WSW) 04:20:18 436.775 MHz
AO-7 19 Sep 04:26:28 04:32:52 24° 92° (E) 04:39:13 29.400 - 29.500 MHz
Uosat F 19 Sep 04:27:22 04:30:02 14° 90° (E) 04:32:42 435.120 FM
OPAL 19 Sep 04:32:09 04:37:09 51° 68° (ENE) 04:42:13 ?
Oscar 16 19 Sep 04:38:54 04:41:51 15° 302° (WNW) 04:44:46 437.025 USB, Beacon 2401.1428
KITSAT 1 19 Sep 04:56:02 05:04:10 77° 55° (NE) 05:12:14 435.175 FM
AO-Echo 19 Sep 04:56:05 04:59:19 18° 298° (WNW) 05:02:36 ?
Gurwin Techsat 1B 19 Sep 05:04:34 05:09:27 38° 293° (WNW) 05:14:18 435.225 FM
RS-15 19 Sep 05:07:18 05:18:13 71° 118° (ESE) 05:29:02 29.354 - 29.394 USB, Beacon 29.352 USB
ITAMSAT 1 19 Sep 05:21:05 05:24:02 16° 302° (WNW) 05:27:00 435.822 SSB
Uribyol 2 19 Sep 05:25:50 05:28:18 14° 303° (WNW) 05:30:47 436.500 FM
JAS-2 19 Sep 05:28:30 05:30:03 11° 87° (E) 05:31:38 435.800 - 435.900 CW/SSB, 435.910 FM
TMSAT-1 19 Sep 05:42:27 05:46:42 25° 297° (WNW) 05:50:56 436.925 FM
ISS 19 Sep 05:46:50 05:49:45 27° 347° (NNW) 05:52:40 145.800 FM
Hamsat 19 Sep 05:57:45 05:59:11 11° 88° (E) 06:00:37 145.90 MHz
Uosat F 19 Sep 06:04:20 06:09:21 73° 287° (WNW) 06:14:21 435.120 FM
OPAL 19 Sep 06:12:18 06:16:18 22° 265° (W) 06:20:21 ?
AO-7 19 Sep 06:18:10 06:26:28 78° 291° (WNW) 06:34:44 29.400 - 29.500 MHz
SO-50 19 Sep 06:21:15 06:25:03 23° 39° (NE) 06:28:52 436.795 FM
STRAND 1 19 Sep 06:51:04 06:56:02 59° 71° (ENE) 07:01:03 ?
KITSAT 1 19 Sep 06:52:30 06:58:45 25° 255° (WSW) 07:04:59 435.175 FM
JAS-2 19 Sep 07:09:55 07:15:53 73° 103° (ESE) 07:22:37 435.800 - 435.900 CW/SSB, 435.910 FM
RS-15 19 Sep 07:21:06 07:31:21 43° 324° (NW) 07:41:40 29.354 - 29.394 USB, Beacon 29.352 USB
ISS 19 Sep 07:24:21 07:27:10 24° 8° (N) 07:29:58 145.800 FM
Hamsat 19 Sep 07:31:23 07:35:38 67° 285° (WNW) 07:39:49 145.90 MHz
Uosat F 19 Sep 07:46:06 07:47:15 11° 305° (NW) 07:48:24 435.120 FM
SO-67 19 Sep 07:46:09 07:48:56 22° 95° (E) 07:51:42 435.3500 MHz FM
SO-50 19 Sep 08:01:16 08:06:03 67° 238° (WSW) 08:10:52 436.795 FM
UOSAT-12 19 Sep 08:01:51 08:05:24 20° 37° (NE) 08:08:55 437.025 FM, 437.400 FM
AO-7 19 Sep 08:12:23 08:18:01 21° 313° (NW) 08:23:39 29.400 - 29.500 MHz
STRAND 1 19 Sep 08:32:10 08:35:37 18° 269° (W) 08:39:06 ?
JAS-2 19 Sep 08:56:16 09:00:32 21° 299° (WNW) 09:05:08 435.800 - 435.900 CW/SSB, 435.910 FM
MaSat-1 19 Sep 08:58:41 09:03:37 60° 113° (ESE) 09:08:29 437.345 MHz
ISS 19 Sep 09:01:01 09:04:20 63° 27° (NNE) 09:07:38 145.800 FM
SO-67 19 Sep 09:19:09 09:21:53 22° 291° (WNW) 09:24:37 435.3500 MHz FM
HO-68 19 Sep 09:28:44 09:34:54 30° 95° (E) 09:41:03 435.675 MHz FM
RS-15 19 Sep 09:38:53 09:47:34 26° 358° (N) 09:56:23 29.354 - 29.394 USB, Beacon 29.352 USB
UOSAT-12 19 Sep 09:41:21 09:46:06 76° 237° (WSW) 09:50:45 437.025 FM, 437.400 FM
FUNcube-1 19 Sep 10:29:16 10:31:47 14° 89° (E) 10:34:17 145.950 - 145.970 MHz USB
MaSat-1 19 Sep 10:36:47 10:40:44 23° 311° (NW) 10:44:36 437.345 MHz
ISS 19 Sep 10:38:16 10:40:47 20° 225° (SW) 10:43:17 145.800 FM
Oscar 11 19 Sep 10:39:03 10:43:09 39° 98° (E) 10:47:13 145.825 FM, Beacon 2401.500 USB
UKube-1 19 Sep 10:55:18 10:59:41 78° 104° (ESE) 11:04:02 145.840 MHz, 145.915 MHz
HO-68 19 Sep 11:15:57 11:22:57 57° 293° (WNW) 11:29:55 435.675 MHz FM
RS-15 19 Sep 11:54:00 12:04:06 39° 32° (NNE) 12:14:27 29.354 - 29.394 USB, Beacon 29.352 USB
Sapphire 19 Sep 12:02:28 12:06:39 23° 107° (ESE) 12:10:51 437.095 MHz 1200 baud AX-25 AFSK
FUNcube-1 19 Sep 12:04:00 12:08:36 64° 286° (WNW) 12:13:08 145.950 - 145.970 MHz USB
Oscar 11 19 Sep 12:15:48 12:19:06 21° 295° (WNW) 12:22:23 145.825 FM, Beacon 2401.500 USB
PCSat 19 Sep 12:28:26 12:33:29 41° 113° (ESE) 12:38:33 145.825 MHz
UKube-1 19 Sep 12:33:29 12:35:16 12° 301° (WNW) 12:37:03 145.840 MHz, 145.915 MHz
Oscar 16 19 Sep 12:39:12 12:42:54 20° 61° (ENE) 12:46:36 437.025 USB, Beacon 2401.1428
AO-Echo 19 Sep 12:55:59 12:57:40 12° 58° (ENE) 12:59:22 ?
JAS-1B 19 Sep 13:02:51 13:09:27 28° 61° (ENE) 13:15:13 435.800 - 435.900 CW/SSB
HO-68 19 Sep 13:06:14 13:09:10 13° 314° (NW) 13:12:07 435.675 MHz FM
ITAMSAT 1 19 Sep 13:22:08 13:25:54 21° 61° (ENE) 13:29:42 435.822 SSB
Uribyol 2 19 Sep 13:26:02 13:30:05 24° 63° (ENE) 13:34:10 436.500 FM
Oscar 19 19 Sep 13:37:51 13:42:57 60° 72° (ENE) 13:48:05 437.125 CW, 437.150 USB
AO-7 19 Sep 13:42:38 13:44:05 11° 36° (NE) 13:45:31 29.400 - 29.500 MHz
Sapphire 19 Sep 13:44:23 13:49:41 56° 306° (NW) 13:55:02 437.095 MHz 1200 baud AX-25 AFSK
TMSAT-1 19 Sep 13:48:00 13:50:30 14° 57° (ENE) 13:53:01 436.925 FM
AO-27 19 Sep 13:55:49 14:00:37 40° 68° (ENE) 14:05:26 436.795 MHz FM
